Location: Unspecified
(0.0000°N, 0.0000°E)
Time: 23:54:04
(UTC+01:00)

GPS 2-15 Rocket1 - Visible Passes

Search period start: 27 December 2014 00:00
Search period end: 06 January 2015 00:00
Orbit: 627 x 680 km, 19.8° (Epoch: 27 December)

Date Brightness Start Highest point End Pass type
(mag) Time Alt. Az. Time Alt. Az. Time Alt. Az.
27 Dec 5.7 04:19:36 18° SE 04:19:36 18° SE 04:20:55 10° ESE visible
27 Dec 5.1 05:57:27 10° WSW 06:00:46 19° SSW 06:04:08 10° SSE visible
28 Dec 5.0 04:45:08 24° SSE 04:45:08 24° SSE 04:47:47 10° SE visible
28 Dec 5.6 06:26:45 10° SSW 06:28:24 12° SSW 06:30:04 10° S visible
29 Dec 5.2 05:10:39 17° SSW 05:11:12 17° SSW 05:14:15 10° SSE visible
30 Dec 5.7 05:37:56 10° SSW 05:38:51 11° SSW 05:39:46 10° S visible
31 Dec 6.0 04:23:57 11° SSE 04:23:57 11° SSE 04:24:23 10° SSE visible
03 Jan 5.4 19:44:00 10° N 19:44:19 10° N 19:44:39 10° NNE visible
04 Jan 4.9 20:09:03 10° NNW 20:11:59 16° NNE 20:12:27 16° NNE visible
05 Jan 4.5 20:35:25 10° NW 20:38:32 24° N 20:38:32 24° N visible
